Regional Weather Roundup
Issued by NWS

Home | Current Version | Previous Version | Text Only | Print | Product List | Glossary On
Versions: 1 2 3 4 5 6 7 8 9 10 11 12 13 14 15 16 17 18 19 20 21 22 23 24 25 26 27 28 29 30 31 32 33 34 35 36 37 38 39 40 41 42 43 44 45 46 47 48 49 50
000
ASUS43 KDMX 230307
RWRIA

WEATHER ROUNDUP FOR IOWA
NATIONAL WEATHER SERVICE DES MOINES IA
1000 PM CDT FRI AUG 22 2014

NOTE: "FAIR" INDICATES FEW OR NO CLOUDS BELOW 12,000 FEET WITH NO
SIGNIFICANT WEATHER AND/OR OBSTRUCTIONS TO VISIBILITY.

* - THESE STATIONS ARE NOT NWS STATIONS...THUS NOT UNDER NWS
QUALITY CONTROL.  THEY ALSO DO NOT REPORT WEATHER SUCH
AS PRECIPITATION OR FOG.

IAZ001>003-012>014-020>022-031>034-043>046-230400-
   NORTHWEST IOWA

CITY           SKY/WX    TMP DP  RH WIND       PRES   REMARKS
CARROLL *      PTCLDY    73  72  94 CALM      29.96R
CHEROKEE *     CLOUDY    77  75  94 NE6       29.96R
DENISON *      PTCLDY    73  73 100 CALM      29.95R
LE MARS *      CLEAR     77  73  88 NE5G13    29.96F
ORANGE CITY *  PTCLDY    79  72  78 NE3       29.98F HX  82
SHELDON *      PTCLDY    72  72 100 NE5       29.99R
SIOUX CITY     CLOUDY    79  72  79 CALM      29.95R HX  82
SPENCER        MOCLDY    74  70  87 NE10      29.99F
STORM LAKE *   PTCLDY    73  73 100 NE5       29.98R
$$

IAZ055>058-069>071-079>083-090>094-230400-
   SOUTHWEST IOWA

CITY           SKY/WX    TMP DP  RH WIND       PRES   REMARKS
ATLANTIC *     PTCLDY    73  73 100 N6        29.95R
AUDUBON *      CLEAR     75  72  88 CALM      29.98R
CLARINDA *     PTCLDY    73  73 100 CALM      29.94S
COUNCIL BLFS * CLEAR     75  75 100 E3        29.94R
CRESTON *      CLEAR     73  73 100 E5        29.96S
HARLAN  *      CLEAR     75  75 100 E6        29.99R
LAMONI         MOCLDY    77  75  93 CALM      29.95F
RED OAK *      CLEAR     73  72  94 SW3       29.94R
SHENANDOAH *   CLEAR     75  72  88 SE5       29.93S
$$

IAZ047>049-059>061-072>074-084-230400-
   CENTRAL IOWA

CITY           SKY/WX    TMP DP  RH WIND       PRES   REMARKS
AMES           LGT RAIN  79  77  94 CALM      29.93F FOG     HX  83
ANKENY *       CLEAR     79  77  94 CALM      29.92F HX  83
CHARITON *     CLEAR     77  75  94 E3        29.94F
DES MOINES     CLOUDY    82  75  79 CALM      29.92F HX  89
GRINNELL*      CLOUDY    77  73  88 E6        29.95F
KNOXVILLE *    MOCLDY    79  77  94 NW3       29.93F HX  83
MARSHALLTOWN   CLOUDY    78  75  90 E5        29.94F HX  81
PELLA *        CLOUDY    79  79 100 CALM      29.94F FOG     HX  83
PERRY *          N/A     77  75  94 CALM      29.94S
$$

IAZ004>006-015-016-023>025-035-036-230400-
   NORTH CENTRAL IOWA

CITY           SKY/WX    TMP DP  RH WIND       PRES   REMARKS
ALGONA *       CLEAR     75  72  88 NE10      29.98F
CLARION *      MOCLDY    73  70  88 CALM      29.97F
ESTHERVILLE    MOCLDY    70  69  97 NE8       30.01S
FORT DODGE *   CLOUDY    72  70  94 NE6       29.97R
MASON CITY     CLOUDY    75  72  90 N8        29.99F
FOREST CITY *  PTCLDY    75  72  88 N8        29.99F
IOWA FALLS *     N/A     77  73  88 N5        29.97F
$$

IAZ007>011-017>019-026>030-037>042-050>054-066-230400-
   NORTHEAST IOWA

CITY           SKY/WX    TMP DP  RH WIND       PRES   REMARKS
CEDAR RAPIDS   MOCLDY    75  75 100 CALM      29.96S
CHARLES CITY * PTCLDY    77  73  88 N6        29.99F
CLINTON *      PTCLDY    77  73  88 CALM      30.00R
DECORAH *      MOCLDY    77  73  88 N5        29.98F
DUBUQUE        CLOUDY    77  76  96 SW7       30.00R
MONTICELLO *   CLOUDY    79  77  94 CALM      29.97R HX  83
OELWEIN *      CLOUDY    77  68  73 E5G12     29.97F
WATERLOO       CLOUDY    75  72  90 CALM      29.94F
$$

IAZ064-065-067-068-078-230400-
   EAST CENTRAL IOWA

CITY           SKY/WX    TMP DP  RH WIND       PRES   REMARKS
DAVENPORT      CLEAR     75  72  90 SE3       29.97S
IOWA CITY      MOCLDY    76  75  97 CALM      29.96S
MT. PLEASANT * PTCLDY    79  75  89 CALM      29.95F HX  82
MUSCATINE *    CLEAR     79  77  94 CALM      29.95F HX  83
QUAD CITIES    CLEAR     74  72  93 SE3       29.96S
$$

IAZ062-063-075>077-085>089-095>099-230400-
   SOUTHEAST IOWA

CITY           SKY/WX    TMP DP  RH WIND       PRES   REMARKS
BURLINGTON     MOCLDY    78  77  96 CALM      29.96R HX  81
FAIRFIELD *    CLEAR     77  75  94 E3        29.95F
FORT MADISON * MOCLDY    79  79 100 CALM      29.96F FOG     HX  83
KEOKUK *       CLEAR     79  77  94 CALM      29.95S FOG     HX  83
OSKALOOSA *      N/A     79  77  94 SE5       29.94F HX  83
CENTERVILLE *  CLEAR     75  75 100 E3        29.97S
OTTUMWA        PTCLDY    78  76  93 SE5       29.94F HX  81
WASHINGTON *   CLEAR     77  77 100 CALM      29.96S
$$

ABBREVIATIONS USED IN REMARKS
   TC - TEMPERATURES IN CELSIUS
  WCI - WIND CHILL INDEX
   HX - HEAT INDEX
  VSB - VISIBILITY
$$




USA.gov is the U.S. government's official web portal to all federal, state and local government web resources and services.